ARSAT 1 (40272 NORAD) Tracking and Keplerian Element Data

This shows tracking and keplerian element data for the satellite.

Feedback or suggestion? Click here.




ElementValue
Catalog40272
NameARSAT 1
Epoch Orbit2049
Epoch Day154.35427396
Epoch Year2020
RAAN130.5949
Inclination0.0569
Eccentricity0.0001764
Argument of Perigee305.8324
Mean Anonmoly230.5876
Mean Motion1.00269801
Decay Rate-2.63E-06
L11 40272U 14062B 20154.35427396 -.00000263 00000-0 00000-0 0 9991
L22 40272 0.0569 130.5949 0001764 305.8324 230.5876 1.00269801 20494

Live tracking and technical data element details for ARSAT 1 (NORAD 40272). ARSAT 1 can be tracked NOW for your location showing map with azimuth and elevation plus other details from your city location.

Track the satellite on the map from your city or location and see movement details for azimuth, elevation, latitude, longitude, range, height, and movement on the map or in text.







IsCatalogInMostPopularTable: catalog: 40272, numindb: 381
Update: records affected: 1



GetName: 40272 ARSAT 1

Hit Count: updated at: Thu, 04 Jun 2020 08:23:24 GMT